Location: Acorn Hill
(36.4429°N, 76.5469°W)
Time: 06:19:27
(UTC+00:00)

Tiangong - Visible Passes

Search period start: 02 August 2021 00:00
Search period end: 12 August 2021 00:00
Orbit: 373 x 386 km, 41.5° (Epoch: 01 August)

Date Brightness Start Highest point End Pass type
(mag) Time Alt. Az. Time Alt. Az. Time Alt. Az.
03 Aug 3.9 09:46:06 10° SSE 09:46:45 10° SE 09:47:25 10° SE visible
05 Aug 3.2 09:18:19 10° SSW 09:20:35 19° SE 09:22:54 10° E visible
07 Aug 2.2 08:53:36 27° S 08:54:26 32° SSE 08:57:16 10° E visible
08 Aug 4.1 07:55:07 11° ESE 07:55:07 11° ESE 07:55:21 10° E visible
08 Aug 1.1 09:27:13 16° WSW 09:29:38 79° NNW 09:32:47 10° ENE visible
09 Aug 1.6 08:28:40 51° ESE 08:28:40 51° ESE 08:31:21 10° ENE visible
10 Aug 1.6 09:02:11 28° W 09:03:33 51° NNW 09:06:38 10° ENE visible
11 Aug 3.1 08:03:35 28° ENE 08:03:35 28° ENE 08:05:13 10° ENE visible
11 Aug 2.5 09:36:10 10° WNW 09:39:02 32° N 09:41:54 10° ENE visible
